GFSSW_925_thetae_309.txt.gz
Theta_e
315 313 312 311 310 310 311 310 308 309 307 300 300 303 305 306 307 312 311 310 308 308 308 310 310 310 311 309 309 306 308 306 308 307 309 305 307 308 308 308 309 310 309 308 308
318 315 313 312 310 310 310 310 309 303 303 300 300 303 305 306 310 311 311 309 308 308 312 309 308 309 308 310 308 307 307 308 306 306 307 305 306 307 310 309 309 309 307 306 311
320 319 316 313 311 310 311 310 308 305 299 298 300 304 306 307 312 311 310 308 307 308 311 310 308 309 310 309 309 308 309 307 309 309 305 306 309 307 308 309 308 308 308 305 309
320 320 319 317 313 311 311 311 309 307 300 298 300 304 307 311 311 310 308 308 308 310 309 308 308 310 309 309 308 309 309 308 308 309 308 308 308 309 307 307 308 306 304 308 306
320 320 320 319 318 314 312 311 310 309 303 298 300 305 309 309 308 310 308 308 308 310 308 307 309 309 310 308 309 309 310 309 309 309 309 309 309 308 308 307 305 304 306 305 305
318 319 320 318 319 318 316 312 311 309 307 299 301 305 311 305 309 308 308 309 310 309 308 308 308 308 308 310 309 308 309 309 309 310 309 309 308 309 307 305 306 303 305 304 305
313 317 320 319 319 319 318 315 313 311 307 300 301 306 308 304 308 308 309 309 309 309 308 309 309 309 308 310 308 309 310 310 310 310 310 307 306 308 307 305 306 304 303 303 304
310 311 317 319 319 318 319 317 315 313 303 300 302 306 303 307 308 308 310 310 310 310 309 310 310 308 309 307 309 311 308 307 308 310 309 306 304 307 305 306 306 305 303 302 303
307 310 311 316 318 318 319 317 316 313 301 300 305 307 304 306 307 308 311 310 309 310 311 311 309 308 308 308 307 306 305 308 311 309 310 307 304 305 306 306 307 305 303 301 301
305 308 309 312 317 318 318 317 315 307 303 303 303 303 303 306 307 308 311 310 308 308 310 310 306 308 307 305 306 307 309 311 310 310 310 310 309 307 307 306 307 305 304 301 301
303 306 308 310 313 315 316 315 304 305 303 302 302 302 306 307 308 308 311 311 309 309 308 309 308 308 308 307 307 306 308 311 308 309 310 308 308 308 305 306 307 306 305 302 301
303 304 306 308 311 314 315 310 308 306 314 306 302 303 306 307 307 308 310 311 310 309 306 307 309 307 306 309 308 309 310 309 308 309 308 302 305 305 304 305 308 307 305 304 301
303 302 303 306 309 314 313 309 305 304 310 309 304 304 305 307 308 307 309 309 311 309 306 307 307 306 309 310 310 308 308 305 304 308 306 305 305 302 306 304 306 305 305 304 301
302 301 302 305 311 312 310 309 302 304 311 315 305 305 306 307 307 307 309 310 310 310 306 306 307 308 308 310 309 311 305 308 308 304 303 304 306 302 304 306 307 306 304 302 299
301 301 301 304 309 310 313 309 304 310 306 309 304 304 305 308 307 309 307 308 310 309 307 309 307 308 309 309 306 309 306 307 308 307 307 304 303 302 306 306 305 305 304 300 297
300 300 301 302 303 309 311 301 309 314 315 307 303 306 307 307 307 307 309 307 307 309 307 308 306 307 307 307 308 306 308 307 305 304 305 304 303 302 302 306 306 305 304 301 297
299 299 300 303 306 306 303 308 311 311 306 305 304 306 307 307 308 309 310 310 309 308 309 309 309 306 306 308 308 307 306 309 307 306 308 302 302 302 302 302 304 303 305 302 296
298 299 300 301 303 303 303 309 313 301 303 304 305 306 307 308 309 310 311 311 310 307 307 310 310 307 305 307 309 308 306 309 307 309 307 303 306 307 301 302 299 300 303 300 294
298 299 299 301 301 302 305 311 306 301 305 306 306 305 305 307 308 309 310 311 311 307 311 309 310 305 305 305 306 309 309 306 307 297 304 305 303 301 300 304 303 302 301 300 294
298 299 299 299 300 302 304 311 303 303 305 305 309 305 303 306 308 309 309 308 309 308 308 309 311 305 305 305 305 306 305 307 306 308 307 304 303 305 304 303 302 300 300 298 294
297 298 299 299 301 301 305 306 304 303 304 306 307 302 305 305 306 308 310 308 307 307 309 310 311 306 305 305 306 306 305 304 305 306 309 306 305 301 302 302 302 300 301 299 296
297 297 298 299 301 301 304 304 304 306 306 305 306 307 306 304 307 308 310 309 306 307 310 310 311 311 307 303 303 304 305 304 307 307 305 306 306 302 301 300 301 300 300 297 296
297 296 298 300 302 301 302 302 305 306 305 305 306 307 305 304 307 308 307 305 304 307 309 307 312 318 315 306 300 304 304 304 304 304 306 309 308 301 300 301 299 299 297 296 293
295 297 296 297 300 301 301 305 305 305 306 304 305 306 305 306 303 306 307 304 304 306 311 312 309 314 320 312 306 305 304 305 306 307 306 306 307 306 303 300 299 298 298 296 295
294 291 293 291 299 300 300 303 306 307 306 307 305 308 307 305 306 306 305 304 305 307 311 310 313 310 310 307 303 304 305 306 306 306 307 308 304 305 303 302 298 297 297 296 296
294 293 296 288 295 298 299 300 303 303 306 307 310 308 309 308 309 306 305 305 308 306 306 307 312 304 313 306 302 303 303 303 305 306 306 305 304 304 303 300 298 298 299 298 298
293 293 294 295 297 294 295 296 298 300 304 306 306 309 309 309 306 306 307 306 308 308 307 304 304 308 311 301 309 316 313 308 303 303 305 307 308 304 303 300 299 298 300 301 299

GFSSW_925_thetae_312.txt.gz
Theta_e
318 317 315 312 311 310 310 311 311 310 309 303 299 303 305 306 307 311 310 311 308 308 308 310 310 309 310 308 307 304 307 306 308 307 309 304 307 306 307 308 308 309 308 307 307
320 319 318 316 312 311 311 310 309 309 304 301 299 303 305 306 311 310 311 309 308 308 311 308 308 309 308 309 307 306 305 307 304 304 307 304 306 306 309 308 308 308 306 306 308
320 320 319 318 317 313 312 311 310 307 304 299 299 302 305 308 311 310 310 308 308 308 311 309 308 309 310 308 308 307 306 307 308 308 305 304 307 306 307 308 306 307 307 305 308
321 320 320 320 319 318 314 312 312 309 306 299 299 303 307 310 310 309 308 308 308 309 310 307 307 309 308 308 307 309 308 306 308 308 306 307 307 308 305 306 307 304 306 305 306
318 320 320 320 318 319 317 315 313 311 307 301 299 304 308 306 306 309 308 308 308 309 308 307 308 308 309 308 308 308 309 308 308 308 308 308 308 307 306 304 305 304 303 305 304
314 316 318 320 318 319 319 317 315 314 309 303 299 304 309 303 308 308 308 309 309 308 308 307 307 307 307 309 308 308 309 309 308 309 308 308 307 309 305 304 305 304 303 303 302
309 311 315 319 319 319 319 318 317 316 314 301 301 304 306 302 307 308 309 309 309 309 307 308 308 309 307 309 308 308 309 309 309 309 309 308 306 307 306 305 305 304 302 302 301
306 308 311 313 317 319 318 318 318 316 315 300 302 305 301 307 307 308 310 309 309 309 309 309 309 307 308 307 307 309 307 306 307 309 309 306 304 302 303 305 306 305 303 302 301
304 305 308 310 312 317 318 318 317 316 313 302 304 307 301 306 307 308 310 309 309 309 310 309 308 307 308 307 306 305 305 307 306 308 309 305 304 303 304 305 306 305 304 302 300
302 304 306 308 310 315 317 317 317 314 304 303 303 303 303 305 307 308 310 309 307 308 309 308 305 307 306 305 306 306 308 309 307 309 309 309 308 306 305 306 306 305 304 303 301
304 302 305 306 309 313 314 316 309 307 302 307 304 303 305 307 307 308 310 310 308 307 309 308 307 307 307 305 305 305 307 310 309 309 310 308 308 308 305 305 306 305 304 303 302
303 303 303 304 307 310 313 312 311 306 314 306 301 302 304 307 307 307 311 311 309 308 305 307 308 306 305 307 308 309 309 308 307 308 308 303 306 305 303 304 306 306 305 304 302
301 302 302 302 305 308 312 312 308 304 312 311 304 302 303 306 306 308 310 309 309 309 306 306 307 305 307 308 309 308 307 305 305 307 305 305 305 303 303 302 303 304 305 304 303
300 301 301 302 305 309 311 314 310 305 313 313 307 306 305 305 307 307 309 310 310 309 307 306 305 307 308 309 308 312 306 305 307 305 303 302 307 303 301 303 305 303 303 303 302
300 299 301 302 305 309 310 312 305 309 304 306 304 303 305 310 308 308 307 308 311 309 306 308 307 308 309 309 307 308 306 306 307 305 306 304 304 303 301 303 302 303 303 301 300
299 299 299 301 303 304 309 303 307 313 312 309 302 305 306 306 307 307 310 307 307 308 307 307 306 306 307 306 306 304 306 305 303 303 305 303 302 303 301 303 305 303 302 301 297
299 299 299 301 303 304 305 307 313 312 303 303 302 305 306 306 308 309 311 310 311 310 310 309 308 306 306 308 307 306 304 308 306 306 308 302 302 302 301 299 304 302 302 300 296
298 299 299 299 301 303 304 309 311 300 301 303 304 304 306 307 308 309 310 311 310 309 306 311 311 307 305 307 308 306 304 307 306 307 306 302 306 307 302 300 299 301 302 300 295
298 298 298 298 300 302 304 312 309 298 304 305 305 303 305 306 307 309 309 311 311 310 311 311 311 305 305 304 306 309 309 305 306 296 305 306 304 302 299 301 303 299 301 301 296
297 297 298 297 299 301 302 309 301 301 303 304 307 302 300 303 307 307 309 309 310 311 308 311 312 305 305 305 305 306 304 306 305 307 308 306 303 306 304 302 300 300 299 300 296
296 296 295 298 300 301 302 306 301 302 304 306 306 300 304 303 302 307 307 307 309 311 310 311 310 307 305 306 306 306 305 304 304 305 309 308 307 301 303 301 301 300 299 300 297
295 293 296 299 301 301 302 300 304 304 305 305 304 305 304 302 305 305 308 308 306 309 313 311 313 314 308 303 303 304 305 304 308 307 304 305 306 302 300 301 299 299 298 298 296
295 291 296 299 300 301 296 298 303 305 305 305 305 306 304 303 305 305 305 306 305 308 311 311 311 316 314 311 303 303 303 303 303 303 306 309 310 301 300 301 300 299 297 297 294
293 293 294 296 298 296 292 299 302 303 305 305 304 306 305 305 300 303 307 304 304 308 310 311 311 314 316 311 309 306 304 304 305 306 307 307 307 307 304 301 299 298 298 296 295
293 289 287 294 297 297 298 298 299 302 303 306 305 306 306 303 304 301 304 303 304 310 309 309 313 311 313 309 306 305 306 306 306 306 307 310 307 308 305 303 299 297 296 295 295
292 288 293 292 291 296 297 298 299 301 304 304 305 306 307 308 307 305 304 303 306 305 312 309 313 307 314 311 307 310 308 304 305 306 306 306 306 303 302 300 299 298 297 297 297
293 293 289 292 295 292 294 295 297 299 299 300 304 305 307 307 305 305 305 304 305 306 309 308 308 308 313 301 307 312 311 308 309 302 305 307 308 306 304 301 300 298 298 298 298

GFSSW_925_thetae_315.txt.gz
Theta_e
319 318 318 317 315 311 311 311 310 308 306 305 299 301 303 305 307 310 310 311 308 308 308 309 309 309 309 307 306 303 308 307 308 307 309 304 306 305 306 307 307 308 307 306 307
321 320 319 318 317 316 313 312 311 308 306 299 299 301 304 306 310 309 310 309 308 308 310 308 307 308 307 307 307 306 307 308 304 304 307 304 304 305 308 307 307 307 306 306 307
321 320 320 319 318 318 317 314 313 310 307 301 298 301 304 308 309 309 310 308 308 308 310 308 308 308 309 307 307 306 306 305 306 306 305 304 304 304 306 307 306 306 306 305 305
317 320 320 320 320 318 318 317 315 313 308 301 298 300 306 310 306 309 308 308 308 309 309 307 307 308 308 308 307 308 307 306 308 306 304 305 306 307 305 305 305 304 306 305 305
314 315 317 320 320 318 318 318 317 315 313 305 298 301 308 306 304 309 308 308 309 309 308 306 308 307 308 307 307 308 308 308 307 308 307 306 307 307 305 304 303 305 304 304 304
310 312 313 317 319 319 319 319 318 317 316 312 299 301 308 302 308 308 308 308 308 308 307 306 306 306 306 308 307 307 308 308 308 308 308 308 307 308 306 303 303 304 305 303 303
308 309 309 312 317 318 319 318 318 318 316 312 300 303 305 302 307 308 309 308 309 308 306 307 307 308 306 309 307 307 308 308 308 308 308 308 306 307 305 305 305 305 304 303 302
306 305 306 309 312 316 318 318 317 318 316 313 301 304 301 305 307 308 309 309 308 309 308 308 308 306 307 305 306 308 306 306 306 307 307 305 305 302 303 305 306 305 304 304 302
304 303 304 306 309 311 317 318 318 317 316 307 303 305 303 305 306 308 309 308 308 309 309 308 307 306 307 306 305 304 305 306 305 307 308 304 305 303 304 304 305 305 304 304 303
303 303 303 305 308 310 314 316 317 317 308 304 303 307 305 304 307 308 310 308 307 307 309 307 305 306 305 305 309 305 308 307 307 308 309 308 308 306 304 305 305 305 304 304 303
302 303 302 304 305 308 312 315 311 309 302 311 308 309 304 306 307 307 310 308 307 307 309 308 308 307 307 305 303 303 306 307 309 308 310 309 309 309 307 304 305 305 305 304 304
301 302 303 302 303 306 311 312 312 306 313 308 302 300 302 306 307 307 309 309 308 307 306 308 308 306 305 305 308 307 308 308 306 307 308 304 307 307 304 304 305 306 304 305 303
300 301 302 302 302 306 310 312 309 305 311 311 306 303 302 305 306 305 308 308 307 307 306 307 307 304 306 307 308 307 308 306 307 306 305 305 305 304 303 302 302 302 303 303 304
300 300 301 301 302 307 308 310 313 306 307 310 308 306 304 304 305 306 309 309 309 307 306 306 305 306 307 307 306 309 305 305 306 307 306 301 308 304 303 300 302 303 302 303 302
299 300 300 301 304 307 308 312 310 308 296 302 305 303 304 307 307 307 307 308 309 308 306 307 306 307 308 308 306 306 304 305 306 304 305 303 304 304 300 303 303 300 302 301 301
299 299 299 300 302 303 305 305 309 308 307 308 303 305 306 306 307 307 309 306 306 308 308 307 305 306 307 305 306 304 305 304 302 303 305 303 302 303 303 304 304 302 301 301 300
298 299 299 300 302 304 306 307 311 309 301 299 303 305 305 306 308 310 310 309 309 310 311 309 308 305 306 307 306 305 304 309 307 306 308 301 301 304 302 300 303 304 301 300 298
298 298 298 299 299 301 303 308 310 298 298 302 303 304 306 306 307 310 311 311 309 308 305 309 309 307 304 307 308 307 304 309 310 307 306 301 305 308 302 301 298 300 300 298 296
297 297 297 297 298 301 304 310 307 297 303 305 304 304 305 306 307 309 309 310 310 307 314 311 311 305 304 304 306 308 309 303 305 295 305 305 304 304 301 300 302 298 301 300 297
296 296 296 296 298 300 301 308 302 300 302 303 307 303 302 305 307 307 307 307 309 308 309 312 314 305 305 304 304 306 304 308 305 305 308 306 304 309 307 304 299 299 299 300 297
295 293 294 297 299 300 302 304 300 301 303 304 305 301 304 303 304 307 306 306 308 310 309 311 311 308 305 307 308 307 305 304 303 305 309 309 308 302 304 303 302 299 298 300 300
295 289 296 298 300 300 301 296 303 304 303 305 304 304 303 302 304 305 306 305 305 309 312 311 313 311 309 304 301 304 305 304 308 307 303 305 308 303 301 301 300 298 298 298 299
287 288 295 298 297 298 294 301 301 304 305 305 305 304 303 303 305 304 304 304 305 309 311 311 312 312 313 311 305 308 305 303 302 303 305 309 310 301 301 301 299 300 297 297 296
291 291 291 295 296 295 297 297 299 298 302 304 305 305 304 304 299 302 305 303 304 307 311 311 310 313 315 310 310 311 307 305 305 307 307 306 306 307 305 303 300 300 298 296 295
290 290 284 292 288 294 297 296 294 298 302 303 304 306 306 306 304 302 303 303 304 310 309 310 311 311 312 309 308 308 310 310 309 308 308 308 308 308 308 304 303 300 297 296 296
292 290 291 291 289 293 294 294 297 298 300 300 304 302 306 308 307 304 304 304 306 307 311 309 313 307 311 310 311 314 311 309 309 309 309 306 307 304 303 302 300 300 298 297 297
292 291 290 288 289 293 290 293 297 297 296 298 300 301 303 304 304 304 304 305 307 308 309 309 308 309 312 301 309 310 309 312 313 307 308 309 309 309 307 305 305 300 297 298 298

GFSSW_925_thetae_318.txt.gz
Theta_e
320 319 319 318 316 316 314 313 311 309 304 299 298 299 302 304 306 310 311 311 311 308 308 310 309 310 311 313 311 310 316 315 315 314 315 310 311 309 309 311 311 312 312 310 310
321 321 320 319 318 317 317 315 314 312 307 300 298 299 302 305 309 310 310 309 308 308 310 310 312 311 314 313 313 315 316 314 312 313 313 311 311 311 311 311 311 311 311 309 310
318 321 319 320 320 318 318 317 316 314 311 304 299 299 302 306 311 310 310 309 308 308 309 308 311 312 313 312 312 312 314 310 310 309 309 311 309 309 311 312 312 312 312 311 309
315 317 319 320 320 320 318 318 318 317 315 311 299 300 304 309 309 309 308 308 308 308 309 308 311 313 313 312 311 311 311 310 311 311 308 310 310 310 311 312 310 310 310 311 310
312 314 315 317 319 320 318 318 318 318 317 317 300 301 308 309 308 308 308 308 308 309 309 310 312 312 312 311 311 311 310 310 310 310 309 308 311 311 311 311 310 309 309 310 311
309 310 311 313 317 319 319 318 318 317 318 316 303 301 309 305 307 309 308 308 308 308 308 308 311 311 311 311 312 311 311 311 310 311 311 311 311 310 312 310 310 309 310 311 310
306 308 308 308 311 315 317 317 318 317 318 316 311 303 306 304 307 308 308 308 308 308 309 308 308 312 311 312 310 311 312 311 312 311 312 310 311 311 311 308 309 309 310 310 309
305 305 306 306 307 310 315 317 318 317 317 316 311 304 308 304 306 308 309 308 308 308 307 307 309 310 312 310 311 312 312 313 310 311 310 309 313 308 307 308 310 310 310 310 310
303 304 303 303 306 309 312 316 317 317 317 315 305 306 313 305 306 307 309 309 308 309 308 308 310 311 311 314 313 313 317 313 311 311 311 310 314 309 308 308 310 310 310 310 310
302 302 304 303 304 307 309 315 316 316 312 307 303 309 308 307 307 308 309 308 310 310 310 311 311 312 312 313 321 317 313 311 313 312 311 313 312 312 311 309 311 311 311 311 311
301 302 302 303 304 305 309 314 313 313 305 318 313 315 304 306 307 309 309 308 310 312 312 311 313 313 313 312 308 310 312 312 312 311 313 314 314 314 313 312 312 312 312 311 311
300 301 302 303 303 303 308 314 313 309 315 310 307 303 302 307 308 308 309 311 311 312 311 312 312 311 307 309 308 310 313 315 311 310 312 315 313 313 312 312 312 313 313 312 312
301 301 301 302 302 302 308 312 310 307 315 314 310 309 308 307 308 309 311 310 310 310 311 313 311 308 309 309 310 310 311 312 313 310 310 309 314 313 310 308 309 309 310 311 312
299 300 300 301 301 303 308 309 311 307 314 312 312 311 305 307 309 306 310 311 310 311 310 310 307 308 309 309 310 311 309 309 309 310 315 306 322 315 313 310 307 309 308 309 309
300 300 299 301 304 306 306 308 310 308 311 307 308 304 305 312 309 308 308 309 312 310 309 311 308 308 310 310 309 310 307 309 309 311 310 310 312 317 306 311 314 312 309 309 309
299 299 299 299 301 302 304 308 307 313 311 310 305 307 307 308 309 309 310 308 309 309 309 309 307 308 309 307 308 306 308 308 308 309 317 313 312 319 316 313 310 308 306 308 308
298 299 299 299 302 303 304 306 313 312 304 307 308 307 308 309 310 310 311 311 315 317 316 310 310 307 308 310 307 308 310 316 318 316 321 305 307 314 312 309 308 309 307 308 307
298 298 299 298 299 300 303 309 310 308 307 304 305 307 310 309 310 311 311 312 311 311 315 318 319 309 308 311 312 310 310 320 323 317 317 303 311 314 310 307 306 305 306 307 306
296 297 297 296 297 300 303 310 310 306 306 307 306 309 309 307 309 311 312 312 311 310 318 316 315 306 306 306 309 310 311 308 309 303 311 313 310 310 309 307 306 304 306 307 305
295 296 296 296 297 299 302 310 310 302 304 305 311 309 311 309 310 312 312 311 312 310 313 313 316 306 307 306 307 309 307 310 309 318 319 316 311 316 314 308 306 306 306 307 305
296 296 294 296 298 300 304 307 305 303 303 306 308 307 308 308 311 311 311 309 310 311 312 312 315 309 307 309 311 309 309 307 309 310 316 319 319 311 311 307 307 307 305 307 304
295 295 295 298 299 300 303 301 303 305 304 305 305 305 306 306 308 310 310 308 309 310 314 313 315 314 311 306 304 307 309 308 313 312 309 309 314 304 305 304 303 304 303 304 305
295 294 293 297 298 300 300 301 301 303 306 307 306 305 304 306 309 308 307 305 309 311 313 312 314 318 316 313 310 311 309 307 308 306 309 313 316 304 304 305 303 304 302 302 305
294 294 294 295 297 298 298 300 300 300 302 302 304 306 305 305 303 308 307 304 306 310 311 312 313 316 315 314 314 314 311 309 310 315 315 311 310 309 309 308 307 304 303 303 302
293 293 290 294 294 295 295 297 298 300 300 300 303 303 306 308 306 307 306 305 307 309 311 311 316 312 314 311 312 314 313 311 312 313 315 316 312 310 310 310 305 303 303 302 301
293 293 290 292 292 295 295 295 296 296 299 300 302 302 305 306 309 307 306 307 309 310 312 310 315 311 314 313 313 315 314 314 312 314 313 314 315 312 310 309 309 308 304 303 302
291 292 294 293 293 295 295 296 295 296 296 297 298 300 301 301 300 299 302 304 307 311 311 309 311 313 316 305 312 315 313 314 314 313 314 315 314 313 313 311 311 311 307 305 305